Weather History for Sedalia, MO

Change the Weather History Date:

Thursday, January 17, 2013

  Actual Average Record
Temperature  
Mean Temperature 35 °F 31 °F  
Max Temperature 41 °F 40 °F 69 °F (1952)
Min Temperature 28 °F 23 °F -21 °F (1977)
Degree Days  
Heating Degree Days 30 34  
Month to date heating degree days 542 576  
Since 1 July heating degree days 2206 2357  
Cooling Degree Days 0 0  
Month to date cooling degree days 0 0  
Year to date cooling degree days 0 0  
Moisture  
Dew Point 26 °F    
Average Humidity 70    
Maximum Humidity 85    
Minimum Humidity 54    
Precipitation  
Precipitation 0.00 in 0.06 in 0.87 in (2004)
Month to date precipitation 0.48 0.87  
Year to date precipitation 0.48 0.87  
Sea Level Pressure  
Sea Level Pressure 30.41 in    
Wind  
Wind Speed 9 mph (NNW)    
Max Wind Speed 21 mph    
Max Gust Speed 25 mph    
Visibility 10 miles    
Events      
T = Trace of Precipitation, MM = Missing Value Source: NWS Daily Summary

Daily Weather History Graph

Daily Weather History Graph

Search for Another Location

Airport:

Trip Planner

Search our weather history database for the weather conditions in past years. The results will help you decide how hot, cold, wet, or windy it might be!

Date:

Astronomy

Jan. 17, 2013 Rise Set
Actual Time 7:28 AM CST 5:17 PM CST
Civil Twilight 6:59 AM CST 5:46 PM CST
Nautical Twilight 6:26 AM CST 6:19 PM CST
Astronomical Twilight 5:55 AM CST 6:51 PM CST
Moon 10:40 AM CST (1/17) No Moon Set
Length of Visible Light 10h 47m
Length of Day
9h 49m
Waxing Crescent, 38% of the Moon is Illuminated
Jan 17
Waxing Crescent
Jan 18
First Quarter
Jan 26
Full
Feb 3
Last Quarter
Feb 10
New

Hourly Weather History & Observations

Time (CST) Temp. Windchill Dew Point Humidity Pressure Visibility Wind Dir Wind Speed Gust Speed Precip Events Conditions
12:53 AM 34.0 °F 27.2 °F 24.1 °F 67% 30.19 in 10.0 mi WNW 8.1 mph - N/A   Clear
1:53 AM 34.0 °F 25.5 °F 28.9 °F 82% 30.22 in 10.0 mi NNW 11.5 mph - N/A   Clear
2:53 AM 34.0 °F 25.5 °F 28.0 °F 79% 30.24 in 10.0 mi NNW 11.5 mph - N/A   Clear
3:53 AM 33.1 °F 25.5 °F 28.0 °F 82% 30.27 in 10.0 mi North 9.2 mph - N/A   Clear
4:53 AM 33.1 °F 24.9 °F 28.9 °F 85% 30.30 in 10.0 mi NNW 10.4 mph - N/A   Clear
5:53 AM 30.9 °F 23.5 °F 27.0 °F 85% 30.32 in 10.0 mi North 8.1 mph - N/A   Clear
6:53 AM 30.0 °F 20.5 °F 26.1 °F 85% 30.36 in 10.0 mi North 11.5 mph - N/A   Clear
7:53 AM 30.0 °F 20.5 °F 26.1 °F 85% 30.40 in 10.0 mi NNW 11.5 mph - N/A   Clear
8:17 AM 30.2 °F 19.3 °F 26.6 °F 86% 30.39 in 10.0 mi North 15.0 mph - N/A   Mostly Cloudy
8:51 AM 30.2 °F 19.3 °F 26.6 °F 86% 30.40 in 10.0 mi North 15.0 mph - N/A   Scattered Clouds
8:53 AM 30.9 °F 20.2 °F 27.0 °F 85% 30.43 in 10.0 mi North 15.0 mph - N/A   Partly Cloudy
9:53 AM 33.1 °F 23.0 °F 25.0 °F 72% 30.47 in 10.0 mi North 15.0 mph 20.7 mph N/A   Clear
10:53 AM 34.0 °F 24.6 °F 25.0 °F 70% 30.48 in 10.0 mi North 13.8 mph - N/A   Clear
11:53 AM 36.0 °F 29.6 °F 24.1 °F 62% 30.47 in 10.0 mi North 8.1 mph - N/A   Clear
12:53 PM 37.9 °F 31.5 °F 24.1 °F 57% 30.45 in 10.0 mi NNW 9.2 mph - N/A   Clear
1:53 PM 39.0 °F 32.3 °F 25.0 °F 57% 30.45 in 10.0 mi NNW 10.4 mph - N/A   Clear
2:53 PM 39.9 °F 33.9 °F 26.1 °F 58% 30.45 in 10.0 mi NNW 9.2 mph - N/A   Clear
3:53 PM 41.0 °F 36.4 °F 27.0 °F 57% 30.45 in 10.0 mi NNW 6.9 mph - N/A   Clear
4:53 PM 39.0 °F 36.8 °F 28.0 °F 65% 30.47 in 10.0 mi NNW 3.5 mph - N/A   Clear
5:53 PM 37.9 °F - 26.1 °F 62% 30.48 in 10.0 mi Calm Calm - N/A   Clear
6:53 PM 35.1 °F - 26.1 °F 70% 30.49 in 10.0 mi Calm Calm - N/A   Clear
7:53 PM 34.0 °F 28.8 °F 25.0 °F 70% 30.49 in 10.0 mi SSW 5.8 mph - N/A   Clear
8:53 PM 30.0 °F 25.2 °F 25.0 °F 82% 30.50 in 10.0 mi South 4.6 mph - N/A   Clear
9:53 PM 28.9 °F 22.8 °F 24.1 °F 82% 30.49 in 10.0 mi SSE 5.8 mph - N/A   Clear
10:53 PM 28.9 °F 21.1 °F 24.1 °F 82% 30.48 in 10.0 mi South 8.1 mph - N/A   Clear
11:53 PM 30.9 °F 22.8 °F 25.0 °F 79% 30.47 in 10.0 mi South 9.2 mph - N/A   Clear